Погода в Меру

Кения     0°02′33″N   37°39′12″E
темп.,
°C
ветер,
м/с
пор.,
м/с
влажн.,
%
обл.,
%
осадки,
мм/ч
давл.,
гПа
погр.,
м
16 апреля, пт
пт1600:00+20з227013 0.1 101432
03:00+18з22775 0.1 101319
06:00+17з228543 0.0 101423
09:00+23юв346680 0.0 1015672
12:00+27вюв435140 0.0 10121628
15:00+28юв224593 0.1 10091902
18:00+20зюз248267 0.8 1011101
21:00+19з228582 1.6 101433
17 апреля, сб
сб1700:00+19з238486 0.3 101351
03:00+18ююз11866 0.3 101222
06:00+17зюз22895 0.0 101426
09:00+23ююв35688 0.0 1015740
12:00+26юв455660 0.4 10141565
15:00+28юв454591 0.5 10102403
18:00+23ююз246099 0.3 101299
21:00+21юз376499 0.3 1015242
18 апреля, вс
вс1800:00+20ююз276713 0.0 1015212
03:00+17зюз118182 0.0 101428
06:00+16зюз118193 0.0 101624
09:00+22ююв477023 0.0 1017892
12:00+26юв665012 0.0 10141798
15:00+27ююв554298 0.0 10112010
18:00+24юв3857100 0.0 1013355
21:00+20юз2362100 0.0 101551
19 апреля, пн
пн1900:00+19юв1170100 0.0 101625
03:00+17зюз118498 0.0 101519
06:00+16зюз118444 0.0 101617
09:00+22юв24645 0.0 1017624
12:00+26вюв44485 0.0 10141506
15:00+28вюв334125 0.1 10112224
18:00+21зюз236892 0.1 101286
21:00+21з2367100 0.3 101565
20 апреля, вт
вт2000:00+19юз237778 0.3 101687
03:00+17зюз11887 0.4 101528
06:00+16з11929 0.0 101612
09:00+22ююв22708 0.0 1016695
12:00+27вюв325174 0.1 10141675
15:00+27вюв324695 0.3 10092036
18:00+22ююв137197 1.1 101149
21:00+20зсз2281100 1.6 101448